sat.trackr.live / text

‹ back to catalog

STARLINK-33954

NORAD 63863 · 2025-093AD

PAYLOAD ACTIVE UNKNOWN

§ Identity

Operator
Country
US
Launch date
2025-05-07
Launch site
AFETR
Launch vehicle
Mass (kg)
RCS (m²)

Purposes: comms

External: N2YO · Heavens-Above · Gunter

§ Orbital elements

Epoch: 2026-05-24T23:01:59.814048Z

Period
94.27 min
Inclination
42.9999°
Eccentricity
0.0001312
Mean motion
15.27587758 rev/d
Perigee alt
482.1 km
Apogee alt
483.9 km
Semi-major
6,861.2 km
B*
2.6973e-4
RAAN
7.4059°
Arg perigee
271.9083°
Mean anomaly
88.1618°
Rev number
5,941

§ Raw data

STARLINK-339541 63863U 25093AD  26144.95972007  .00007169  00000+0  26973-3 0  99932 63863  42.9999   7.4059 0001312 271.9083  88.1618 15.27587758 59418

JSON: /api/v1/satellites/63863 · /tle

For live sub-satellite position, see the globe view (requires WebGL).

§ Visibility from observer

Set your observer location to see the next 7 days of passes ≥ 10°. The values pass through the URL so the page stays shareable.

No JS? Fill the form by hand. The geolocation button needs JavaScript.